When you browse on this site, cookies collect data to enhance your experience and personalize the content and advertising you see.
Visit our Privacy Policy to learn more. By continuing to use the site, you agree to this use of cookies and data.
  • In Portugal
  • List of Countries
  • For 7 days
  • Water Temperature
  • Satellite Maps
  • Weather Map
  • Weather Widgets
  • user-avatar
    Login

    Hourly Weather Trushniki

    Today, 26 April, Friday

    Time Temperature Precipitation Wind Pressure Humidity
    00:00 +2°C° 0 mm 2 mps 751 mmHg 79%
    01:00 +1°C° 0 mm 2 mps 751 mmHg 81%
    02:00 +1°C° 0 mm 2 mps 751 mmHg 82%
    03:00 +1°C° 0 mm 1 mps 751 mmHg 83%
    04:00 +1°C° 0 mm 1 mps 751 mmHg 85%
    05:00 +1°C° 0 mm 1 mps 751 mmHg 80%
    06:00 +2°C° 0 mm 1 mps 750 mmHg 74%
    07:00 +3°C° 0 mm 1 mps 750 mmHg 69%
    08:00 +5°C° 0 mm 1 mps 750 mmHg 61%
    09:00 +5°C° 0 mm 2 mps 750 mmHg 54%
    10:00 +7°C° 0 mm 2 mps 750 mmHg 46%
    11:00 +7°C° 0 mm 3 mps 749 mmHg 45%
    12:00 +8°C° 0 mm 3 mps 749 mmHg 44%
    13:00 +8°C° 0 mm 4 mps 749 mmHg 43%
    14:00 +8°C° 0.2 mm 4 mps 749 mmHg 47%
    15:00 +8°C° 0.2 mm 5 mps 748 mmHg 50%
    16:00 +7°C° 0.2 mm 5 mps 748 mmHg 54%
    17:00 +7°C° 0.2 mm 4 mps 748 mmHg 57%
    18:00 +6°C° 0.2 mm 4 mps 748 mmHg 60%
    19:00 +7°C° 0.2 mm 3 mps 748 mmHg 63%
    20:00 +5°C° 0 mm 3 mps 748 mmHg 66%
    21:00 +3°C° 0 mm 3 mps 748 mmHg 69%
    22:00 +2°C° 0 mm 3 mps 749 mmHg 73%
    23:00 +2°C° 0 mm 2 mps 749 mmHg 75%

    Tomorrow, 27 April, Saturday

    Time Temperature Precipitation Wind Pressure Humidity
    00:00 +2°C° 0 mm 2 mps 749 mmHg 77%
    01:00 +1°C° 0 mm 2 mps 749 mmHg 80%
    02:00 +1°C° 0 mm 1 mps 749 mmHg 80%
    03:00 +1°C° 0 mm 1 mps 749 mmHg 81%
    04:00 +1°C° 0 mm 1 mps 750 mmHg 82%
    05:00 +2°C° 0 mm 1 mps 750 mmHg 77%
    06:00 +2°C° 0 mm 1 mps 749 mmHg 72%
    07:00 +2°C° 0 mm 2 mps 749 mmHg 67%
    08:00 +3°C° 0 mm 3 mps 749 mmHg 63%
    09:00 +4°C° 0 mm 4 mps 748 mmHg 59%
    10:00 +5°C° 0 mm 5 mps 748 mmHg 54%
    11:00 +7°C° 0 mm 6 mps 747 mmHg 52%
    12:00 +8°C° 0 mm 6 mps 746 mmHg 50%
    13:00 +10°C° 0 mm 7 mps 745 mmHg 47%
    14:00 +11°C° 0 mm 7 mps 745 mmHg 45%
    15:00 +11°C° 0 mm 7 mps 744 mmHg 43%
    16:00 +12°C° 0 mm 7 mps 743 mmHg 40%
    17:00 +11°C° 0 mm 6 mps 743 mmHg 45%
    18:00 +12°C° 0 mm 5 mps 742 mmHg 49%
    19:00 +10°C° 0 mm 5 mps 742 mmHg 54%
    20:00 +9°C° 0 mm 5 mps 741 mmHg 57%
    21:00 +8°C° 0 mm 5 mps 741 mmHg 59%
    22:00 +7°C° 0 mm 5 mps 741 mmHg 62%
    23:00 +7°C° 0 mm 5 mps 740 mmHg 63%

    Day after tomorrow, 28 April, Sunday

    Time Temperature Precipitation Wind Pressure Humidity
    00:00 +7°C° 0 mm 5 mps 740 mmHg 65%
    01:00 +7°C° 0 mm 4 mps 740 mmHg 66%
    02:00 +7°C° 0.3 mm 4 mps 739 mmHg 72%
    03:00 +7°C° 0.3 mm 3 mps 739 mmHg 79%
    04:00 +7°C° 0.3 mm 2 mps 738 mmHg 85%
    05:00 +5°C° 1.1 mm 3 mps 738 mmHg 86%
    06:00 +4°C° 1.1 mm 4 mps 738 mmHg 88%
    07:00 +3°C° 1.1 mm 4 mps 737 mmHg 90%
    08:00 +1°C° 1.3 mm 4 mps 738 mmHg 90%
    09:00 0°C° 1.3 mm 5 mps 738 mmHg 90%
    10:00 0°C° 1.3 mm 5 mps 738 mmHg 90%
    11:00 0°C° 0.2 mm 5 mps 739 mmHg 88%
    12:00 +1°C° 0.2 mm 4 mps 740 mmHg 85%
    13:00 +1°C° 0.2 mm 4 mps 740 mmHg 83%
    14:00 +2°C° 0.1 mm 5 mps 741 mmHg 80%
    15:00 +2°C° 0.1 mm 5 mps 741 mmHg 77%
    16:00 +3°C° 0.1 mm 6 mps 742 mmHg 74%
    17:00 +2°C° 0.1 mm 5 mps 742 mmHg 75%
    18:00 +3°C° 0.1 mm 4 mps 743 mmHg 76%
    19:00 +1°C° 0.1 mm 4 mps 743 mmHg 78%
    20:00 0°C° 0 mm 4 mps 744 mmHg 80%
    21:00 -1°C° 0 mm 4 mps 744 mmHg 83%
    22:00 -1°C° 0 mm 3 mps 745 mmHg 85%
    23:00 -1°C° 0 mm 3 mps 745 mmHg 87%

    29 April, Monday

    Time Temperature Precipitation Wind Pressure Humidity
    00:00 -2°C° 0 mm 3 mps 745 mmHg 88%
    01:00 -4°C° 0 mm 3 mps 746 mmHg 89%
    02:00 -4°C° 0 mm 3 mps 746 mmHg 89%
    03:00 -4°C° 0 mm 3 mps 746 mmHg 89%
    04:00 -5°C° 0 mm 3 mps 747 mmHg 90%
    05:00 -4°C° 0 mm 3 mps 747 mmHg 87%
    06:00 -4°C° 0 mm 3 mps 747 mmHg 83%
    07:00 -2°C° 0 mm 3 mps 747 mmHg 80%
    08:00 -1°C° 0 mm 3 mps 748 mmHg 73%
    09:00 -1°C° 0 mm 4 mps 748 mmHg 66%
    10:00 +1°C° 0 mm 4 mps 748 mmHg 60%
    11:00 +1°C° 0.2 mm 4 mps 748 mmHg 56%
    12:00 +3°C° 0.2 mm 4 mps 748 mmHg 53%
    13:00 +3°C° 0.2 mm 4 mps 748 mmHg 50%
    14:00 +3°C° 0.2 mm 4 mps 749 mmHg 51%
    15:00 +3°C° 0.2 mm 4 mps 749 mmHg 52%
    16:00 +3°C° 0.2 mm 4 mps 749 mmHg 53%
    17:00 +1°C° 0.1 mm 4 mps 749 mmHg 57%
    18:00 +1°C° 0.1 mm 3 mps 749 mmHg 62%
    19:00 0°C° 0.1 mm 3 mps 750 mmHg 66%
    20:00 -1°C° 0 mm 3 mps 750 mmHg 70%
    21:00 -2°C° 0 mm 2 mps 750 mmHg 74%
    22:00 -3°C° 0 mm 2 mps 751 mmHg 78%
    23:00 -4°C° 0 mm 2 mps 751 mmHg 79%

    30 April, Tuesday

    Time Temperature Precipitation Wind Pressure Humidity
    00:00 -4°C° 0 mm 2 mps 751 mmHg 79%
    01:00 -4°C° 0 mm 2 mps 751 mmHg 80%
    02:00 -5°C° 0 mm 2 mps 751 mmHg 80%
    03:00 -5°C° 0 mm 2 mps 751 mmHg 80%
    04:00 -5°C° 0 mm 2 mps 751 mmHg 80%
    05:00 -4°C° 0 mm 2 mps 751 mmHg 76%
    06:00 -3°C° 0 mm 2 mps 751 mmHg 71%
    07:00 -2°C° 0 mm 2 mps 751 mmHg 66%
    08:00 -1°C° 0 mm 2 mps 751 mmHg 60%
    09:00 0°C° 0 mm 3 mps 751 mmHg 54%
    10:00 +1°C° 0 mm 3 mps 751 mmHg 47%
    11:00 0°C° 0 mm 4 mps 751 mmHg 47%
    12:00 0°C° 0 mm 4 mps 750 mmHg 47%
    13:00 +1°C° 0 mm 4 mps 750 mmHg 46%
    14:00 +1°C° 0 mm 4 mps 750 mmHg 47%
    15:00 +1°C° 0 mm 4 mps 750 mmHg 47%
    16:00 +1°C° 0 mm 4 mps 750 mmHg 47%
    17:00 +2°C° 0 mm 3 mps 750 mmHg 51%
    18:00 +2°C° 0 mm 3 mps 749 mmHg 54%
    19:00 +2°C° 0 mm 2 mps 749 mmHg 57%
    20:00 0°C° 0 mm 3 mps 749 mmHg 61%
    21:00 -1°C° 0 mm 3 mps 749 mmHg 64%
    22:00 -2°C° 0 mm 3 mps 749 mmHg 67%
    23:00 -2°C° 0 mm 3 mps 749 mmHg 67%

    1 May, Wednesday

    Time Temperature Precipitation Wind Pressure Humidity
    00:00 -3°C° 0 mm 4 mps 748 mmHg 67%
    01:00 -3°C° 0 mm 4 mps 748 mmHg 67%
    02:00 -3°C° 0 mm 4 mps 748 mmHg 66%
    03:00 -2°C° 0 mm 5 mps 748 mmHg 65%
    04:00 -2°C° 0 mm 5 mps 748 mmHg 64%
    05:00 -2°C° 0 mm 5 mps 748 mmHg 63%
    06:00 -1°C° 0 mm 5 mps 748 mmHg 61%
    07:00 0°C° 0 mm 5 mps 747 mmHg 60%
    08:00 +1°C° 0 mm 5 mps 748 mmHg 59%
    09:00 +3°C° 0 mm 5 mps 748 mmHg 58%
    10:00 +5°C° 0 mm 5 mps 748 mmHg 57%
    11:00 +6°C° 0.1 mm 5 mps 748 mmHg 55%
    12:00 +6°C° 0.1 mm 5 mps 748 mmHg 53%
    13:00 +7°C° 0.1 mm 5 mps 748 mmHg 52%
    14:00 +7°C° 0.1 mm 5 mps 748 mmHg 52%
    15:00 +7°C° 0.1 mm 4 mps 748 mmHg 53%
    16:00 +7°C° 0.1 mm 4 mps 748 mmHg 53%
    17:00 +7°C° 0.1 mm 3 mps 748 mmHg 58%
    18:00 +6°C° 0.1 mm 2 mps 748 mmHg 63%
    19:00 +7°C° 0.1 mm 1 mps 748 mmHg 68%
    20:00 +6°C° 0 mm 1 mps 748 mmHg 71%
    21:00 +4°C° 0 mm 1 mps 748 mmHg 74%
    22:00 +3°C° 0 mm 1 mps 748 mmHg 76%
    23:00 +3°C° 0 mm 1 mps 748 mmHg 76%
    Show more